Flag for U.S.A. Weather past 2 weeks in Duluth, Minnesota, U.S.A.

Now
45 °F

Scattered clouds.


Feels Like: 36 °F
Forecast: 35 / 46 °F
Wind: 22 mph from Northwest

Location: Sky Harbor Airport

Current Time: Mar 29, 2015 at 6:12:23 PM

Latest Report: Mar 29, 2015 at 5:34 PM


Visibility: 10 mi

Pressure: 29.73 "Hg

Humidity: 57%

Dew point: 30 °F

Location of DuluthLocation

Historic Weather in Duluth — Graph

°F

Duluth temperature yesterday

Maximum temperature yesterday: 45 °F (at 2:34 PM)
Minimum temperature yesterday: 18 °F (at 7:13 AM)
Average temperature yesterday: 32 °F

Past Weeks' High & Low Weather Summary

 TemperatureHumidityPressure
High63 °F (Mar 15, 4:13 PM)100% (Mar 20, 5:53 PM)30.44 "Hg (Mar 20, 5:53 PM)
Low18 °F (Mar 21, 7:53 AM)18% (Mar 28, 4:33 PM)29.50 "Hg (Mar 29, 8:33 AM)
Average33 °F65%30.10 "Hg
* Reported Mar 14 4:13 PM — Mar 29 4:53 PM, Duluth, Weather by CustomWeather, © 2015

Note: Actual official high and low records may vary slightly from our data, if they occured in-between our weather recording intervals... More about our weather records

Advertising

Duluth weather history for previous 24 hours

 ConditionsComfort  
Time TempWeatherWind HumidityBarometerVisibility
4:53 PM
Sun, Mar 29
45 °FPartly sunny.17 mph66%29.71 "Hg10 mi
4:34 PM45 °FScattered clouds.24 mph66%29.69 "Hg10 mi
4:13 PM43 °FBroken clouds.31 mph71%29.68 "Hg10 mi
3:53 PM45 °FScattered clouds.31 mph66%29.66 "Hg10 mi
3:33 PM43 °FBroken clouds.22 mph71%29.65 "Hg10 mi
3:13 PM41 °FOvercast.24 mph81%29.64 "Hg10 mi
2:53 PM41 °FMore clouds than sun.26 mph81%29.62 "Hg10 mi
2:34 PM41 °FCloudy.23 mph81%29.60 "Hg10 mi
2:14 PM39 °FMostly cloudy.21 mph93%29.59 "Hg10 mi
1:53 PM39 °FCloudy.25 mph93%29.57 "Hg10 mi
1:34 PM39 °FMostly cloudy.23 mph93%29.55 "Hg10 mi
1:14 PM37 °FMostly cloudy.14 mph100%29.54 "Hg10 mi
12:53 PM36 °FMostly cloudy.12 mph93%29.53 "Hg10 mi
12:34 PM34 °FLight rain. Mostly cloudy.14 mph93%29.52 "Hg10 mi
12:14 PM34 °FLight rain. Cloudy.16 mph93%29.52 "Hg5 mi
11:53 AM34 °FLight rain. Cloudy.No wind93%29.51 "Hg2 mi
11:34 AM34 °FLight rain. Cloudy.No wind93%29.51 "Hg3 mi
11:13 AM34 °FLight rain. Cloudy.13 mph93%29.50 "Hg3 mi
10:54 AM36 °FDrizzle. Overcast.15 mph93%29.50 "Hg7 mi
10:33 AM36 °FOvercast.14 mph93%29.50 "Hg10 mi
10:13 AM36 °FOvercast.14 mph93%29.50 "Hg10 mi
9:54 AM36 °FRain. Overcast.13 mph93%29.50 "Hg4 mi
9:33 AM36 °FRain. Overcast.13 mph87%29.50 "Hg10 mi
9:13 AM37 °FDrizzle. Overcast.17 mph81%29.51 "Hg7 mi
8:54 AM37 °FOvercast.22 mph75%29.51 "Hg10 mi
8:33 AM37 °FOvercast.18 mph75%29.50 "Hg10 mi
8:13 AM37 °FOvercast.18 mph75%29.52 "Hg10 mi
7:53 AM37 °FOvercast.21 mph75%29.54 "Hg10 mi
7:33 AM37 °FOvercast.23 mph70%29.51 "Hg10 mi
7:14 AM37 °FOvercast.21 mph70%29.55 "Hg10 mi
6:53 AM37 °FOvercast.17 mph70%29.57 "Hg10 mi
6:34 AM37 °FOvercast.23 mph70%29.58 "Hg10 mi
6:14 AM37 °FLight rain. Mostly cloudy.16 mph65%29.59 "Hg10 mi
5:53 AM37 °FLight rain. Partly cloudy.23 mph65%29.60 "Hg10 mi
5:33 AM39 °FPartly cloudy.24 mph56%29.61 "Hg10 mi
5:14 AM39 °FPassing clouds.16 mph52%29.64 "Hg10 mi
4:53 AM37 °FClear.17 mph52%29.65 "Hg10 mi
4:34 AM37 °FClear.15 mph52%29.68 "Hg10 mi
4:13 AM37 °FPassing clouds.15 mph48%29.72 "Hg10 mi
3:54 AM37 °FClear.12 mph48%29.75 "Hg10 mi
3:33 AM37 °FClear.12 mph48%29.77 "Hg10 mi
3:13 AM37 °FClear.12 mph48%29.80 "Hg10 mi
2:54 AM37 °FClear.10 mph48%29.84 "Hg10 mi
2:33 AM37 °FClear.13 mph48%29.79 "Hg10 mi
2:13 AM37 °FClear.14 mph48%29.79 "Hg10 mi
1:54 AM37 °FClear.17 mph48%29.79 "Hg10 mi
1:33 AM37 °FClear.15 mph48%29.81 "Hg10 mi
1:13 AM37 °FClear.17 mph48%29.83 "Hg10 mi
12:53 AM37 °FClear.14 mph48%29.85 "Hg10 mi
12:34 AM36 °FClear.14 mph52%29.85 "Hg10 mi
12:13 AM37 °FClear.15 mph48%29.87 "Hg10 mi
11:54 PM
Sat, Mar 28
36 °FClear.9 mph52%29.88 "Hg10 mi
11:33 PM37 °FClear.No wind48%29.90 "Hg10 mi
11:13 PM37 °FClear.13 mph48%29.92 "Hg10 mi
10:54 PM37 °FClear.9 mph48%29.93 "Hg10 mi
10:14 PM37 °FClear.15 mph45%29.95 "Hg10 mi
9:53 PM37 °FClear.17 mph41%29.96 "Hg10 mi
9:33 PM37 °FClear.15 mph41%29.97 "Hg10 mi
9:13 PM37 °FClear.14 mph45%29.98 "Hg10 mi
8:54 PM39 °FClear.13 mph42%29.98 "Hg10 mi
8:33 PM39 °FClear.17 mph39%29.99 "Hg10 mi
8:14 PM39 °FSunny.17 mph39%30.00 "Hg10 mi
7:53 PM41 °FSunny.16 mph36%30.00 "Hg10 mi
7:33 PM41 °FSunny.17 mph36%30.01 "Hg10 mi
7:14 PM43 °FSunny.15 mph31%30.01 "Hg10 mi
6:53 PM43 °FSunny.13 mph29%30.01 "Hg10 mi
6:33 PM45 °FSunny.15 mph27%30.01 "Hg10 mi
6:14 PM45 °FSunny.16 mph25%30.02 "Hg10 mi
Weather by CustomWeather, © 2015

See weather overviewHow to use our weather pages